Theta_e
318 320 321 325 328 331 330 329 333 331 332 326 321 326 321 322 323 320 321 321 321 319 318 318 319 319 320 319 320 318 318 318 319 326 325 324 321 312 313 313 313 314 318 321 323 324 318 314 316 317 319 321 322 323 325 328 331 332 332 333 333 334 335 336 337 338 338 338 337 337 337 337 336 335 334 333 332 332 333 334 334 334 333 330 326 321 317 318 321 321 321 321 322 318 313 312 314
318 319 322 327 328 331 330 328 337 333 331 324 319 324 319 322 323 320 320 320 320 318 318 318 319 319 318 319 319 318 318 317 320 323 317 315 317 313 314 313 314 314 318 321 323 327 321 315 315 317 318 320 321 321 321 323 328 331 333 333 333 333 334 335 335 336 337 337 336 336 337 337 337 336 335 335 334 333 332 333 333 334 335 334 330 325 318 316 318 319 320 319 321 320 315 312 312
318 318 322 329 329 329 330 331 339 334 328 322 317 321 320 320 320 319 320 318 319 318 318 318 319 319 318 319 318 318 317 315 317 318 313 313 314 313 313 313 314 314 318 320 323 329 325 316 314 315 317 319 321 320 318 318 319 323 328 330 332 333 333 333 333 335 336 336 335 335 336 336 336 336 336 335 335 334 334 332 332 333 335 335 334 330 322 318 315 315 315 315 319 320 315 312 312
318 319 324 329 331 330 333 336 339 334 324 320 319 319 320 320 319 319 318 318 318 318 318 317 318 318 317 318 317 317 317 314 313 313 313 313 313 313 313 313 313 313 316 318 325 333 330 318 314 314 315 317 320 321 320 319 319 318 320 322 326 329 331 333 333 334 335 335 335 334 335 334 335 336 336 336 335 335 335 334 332 332 331 331 334 334 329 324 319 317 317 318 322 324 319 313 311
318 321 323 326 332 328 329 332 333 331 320 321 322 317 319 319 319 318 317 319 318 318 317 317 317 317 318 318 317 317 316 315 314 313 313 312 312 313 313 313 313 313 314 316 321 328 326 317 314 314 313 315 318 322 323 323 323 323 322 321 321 322 325 329 331 333 332 333 334 333 334 334 334 335 334 335 335 335 334 334 333 331 328 327 331 335 333 330 325 324 326 326 327 327 325 318 312
320 323 323 324 328 324 328 330 324 324 318 323 322 316 320 318 318 317 316 318 317 317 316 316 316 317 317 316 316 315 314 315 314 313 313 314 313 313 313 314 314 313 313 314 315 316 316 314 314 314 314 314 317 320 322 324 325 326 326 325 323 322 321 322 326 330 331 331 332 332 333 333 333 334 334 333 333 333 333 333 333 330 327 325 328 331 332 331 330 330 331 330 329 329 329 326 318
319 323 324 325 325 323 333 330 321 324 318 320 321 317 320 317 317 317 317 318 317 317 316 316 316 316 316 316 315 313 313 313 314 314 314 315 315 313 314 314 314 314 314 314 313 313 313 313 313 313 314 314 315 317 320 323 324 325 327 327 326 325 324 323 323 326 329 329 329 331 331 330 330 330 332 332 331 331 332 333 332 330 328 326 326 328 330 331 331 331 333 333 332 331 330 329 326
320 322 321 327 333 327 332 327 322 327 320 317 319 318 318 316 317 317 318 317 317 317 315 316 316 316 314 315 315 312 312 311 312 313 314 315 315 314 314 314 314 315 315 314 314 314 314 314 314 313 314 314 314 315 318 323 325 325 326 327 326 326 326 325 324 324 325 325 325 327 328 329 329 329 330 331 331 330 330 331 331 330 329 328 327 328 329 330 332 331 333 333 333 333 330 329 329
320 322 321 328 334 331 332 327 322 323 319 319 318 317 317 317 317 317 318 316 316 315 315 316 315 315 313 313 313 312 311 311 311 311 312 313 313 312 312 313 313 314 315 315 315 315 314 314 314 314 314 313 314 314 316 320 325 327 327 328 327 327 326 326 326 325 325 325 324 323 324 328 330 329 330 331 331 331 331 331 330 330 329 328 328 329 330 330 332 332 332 332 333 333 330 328 329
321 321 322 329 331 329 327 324 322 320 318 318 316 317 317 317 317 316 316 315 315 315 315 316 316 315 313 313 312 311 311 310 311 311 310 311 312 311 311 312 312 313 314 315 316 315 315 314 314 314 314 314 314 314 314 316 320 325 328 328 328 327 327 328 327 327 327 327 326 325 322 324 328 328 328 329 329 330 332 332 331 330 329 329 328 329 331 330 331 332 332 331 332 332 330 330 330
321 320 323 331 331 325 320 321 322 319 317 317 316 317 317 317 317 316 316 314 315 315 315 315 315 315 313 312 311 310 310 310 311 310 310 310 310 310 310 311 311 312 312 313 313 313 313 312 313 313 313 313 314 314 314 314 315 319 323 325 327 327 328 329 329 329 329 327 326 326 324 323 325 325 323 323 324 328 330 331 332 331 329 328 327 328 330 330 330 331 331 331 330 332 332 330 329
319 323 327 328 329 323 320 324 320 319 319 319 317 316 316 316 316 316 316 314 314 314 314 315 315 314 313 312 311 309 310 310 310 310 310 310 309 309 309 310 310 311 311 310 310 310 310 311 311 312 312 312 313 313 314 314 314 316 318 320 323 325 326 328 329 330 331 329 327 326 325 324 325 323 319 316 317 323 328 330 330 330 328 328 327 327 328 329 330 330 330 330 329 330 331 330 328
317 324 327 326 330 324 322 324 321 324 321 318 318 316 316 315 316 315 315 314 315 315 314 315 314 314 313 312 310 309 309 309 309 309 309 309 309 309 309 309 309 309 309 308 308 308 309 309 309 310 310 311 311 311 312 313 313 314 315 316 318 321 323 325 327 328 328 329 329 329 327 325 324 324 321 317 314 317 324 327 327 328 328 328 328 327 328 329 329 329 329 329 329 328 330 330 330
318 321 324 327 332 324 321 322 322 327 320 317 318 315 317 315 315 315 315 315 314 314 314 315 315 314 313 311 309 307 307 308 308 308 308 308 308 308 308 308 308 307 308 308 307 307 307 307 307 308 308 309 309 309 310 311 312 312 313 314 315 317 318 320 322 322 323 324 326 327 327 327 326 323 321 318 316 316 317 319 322 326 327 328 329 328 328 328 327 328 328 328 328 327 327 329 331
318 319 324 329 331 324 321 321 323 326 318 318 317 315 316 315 316 315 315 316 313 314 314 314 314 314 312 310 307 305 305 306 307 307 307 308 307 307 307 307 307 306 306 307 305 304 305 306 306 306 306 306 307 307 308 309 309 310 311 312 313 314 316 317 318 318 319 319 320 322 323 325 326 324 322 319 318 317 315 316 319 323 326 327 328 328 327 326 326 325 327 326 326 326 325 326 329
316 321 330 329 329 324 320 321 324 323 317 317 316 315 316 314 316 315 314 314 312 313 313 312 311 311 308 307 305 304 305 306 306 306 307 307 307 306 307 306 305 305 305 305 304 303 303 304 304 304 305 305 305 305 306 307 307 308 308 309 310 312 315 318 319 319 319 319 319 319 320 321 321 322 323 322 321 320 317 316 319 323 325 326 326 328 327 326 326 325 325 324 324 325 325 325 328
318 328 335 330 329 323 319 320 322 320 316 316 315 314 315 314 315 314 314 313 311 311 310 309 308 307 305 305 305 305 305 305 306 306 306 305 305 305 305 305 304 304 304 304 303 303 303 304 304 304 304 304 304 305 305 305 305 306 306 306 307 308 311 316 320 323 323 323 322 321 321 322 321 322 323 325 325 326 322 320 324 326 325 324 324 327 328 327 326 325 324 324 324 324 325 326 327
321 332 330 329 331 322 318 318 316 318 316 314 314 314 315 315 314 313 313 311 310 309 308 308 307 305 305 305 305 305 305 305 305 304 304 303 303 303 303 303 303 303 303 303 303 303 303 303 304 304 304 304 305 305 305 305 305 305 305 305 305 305 307 309 314 321 324 326 325 325 325 325 324 324 323 324 327 327 325 323 325 326 326 326 326 327 327 327 326 324 323 324 325 325 325 326 326
322 329 325 330 332 319 317 316 314 316 315 314 314 314 314 314 313 314 313 310 309 308 307 306 306 305 305 305 305 304 303 303 303 302 302 302 302 301 301 302 301 302 302 302 302 302 303 303 303 304 304 304 304 305 305 305 305 305 305 305 305 304 304 304 306 311 318 323 325 326 327 327 327 326 325 324 324 325 323 321 319 321 326 329 329 329 326 326 326 324 322 323 325 326 326 325 325
320 322 324 333 327 316 316 314 314 315 314 315 314 314 313 313 314 313 311 308 308 307 306 305 304 304 304 304 304 303 303 302 302 301 301 301 301 301 300 300 300 300 300 301 301 301 302 302 302 302 302 302 302 303 303 303 303 303 304 304 304 304 303 303 303 304 308 314 320 324 326 326 327 327 327 325 323 323 322 319 315 318 326 329 330 330 327 326 327 325 323 322 323 324 325 324 324
318 318 325 330 320 315 317 314 315 315 314 315 313 314 313 313 314 312 311 311 308 305 305 305 303 303 303 303 302 302 302 301 300 300 300 300 300 300 300 300 299 299 299 300 300 300 300 300 300 300 299 299 299 299 299 300 300 300 301 301 301 302 302 302 303 303 305 308 312 317 322 324 326 326 326 326 325 324 323 321 318 318 323 327 329 328 326 326 327 326 324 323 322 322 323 323 323
317 318 320 320 314 315 317 314 315 314 314 314 313 313 313 313 312 311 312 312 308 305 305 305 303 303 303 302 302 302 301 300 299 299 299 299 299 299 300 300 300 299 299 299 299 298 298 298 298 297 297 297 297 297 297 297 297 297 297 298 298 298 299 300 301 302 305 307 310 312 315 319 322 324 325 326 326 326 326 324 321 318 321 325 329 328 326 326 328 327 323 323 322 321 322 322 321
317 318 316 315 315 315 315 315 314 314 314 313 313 313 313 311 310 309 309 307 305 305 304 304 303 303 303 302 302 301 300 299 299 298 298 298 298 299 298 298 298 298 298 297 297 297 297 297 296 296 296 296 296 296 296 296 296 296 296 296 296 296 296 297 298 299 301 305 309 311 312 314 316 319 321 324 325 326 327 327 324 319 318 322 326 328 328 328 328 327 324 323 321 320 322 320 319
317 320 316 315 316 315 315 315 313 314 314 313 312 312 312 312 310 308 306 305 305 305 304 304 303 302 303 303 302 300 299 299 299 299 299 298 298 298 298 297 297 297 297 297 296 296 296 296 296 296 296 296 296 296 295 295 295 295 295 295 295 295 295 296 297 297 298 300 304 308 311 314 315 316 317 319 321 323 325 326 326 323 320 319 322 325 327 328 328 327 326 324 321 320 320 319 319
318 320 317 315 316 315 316 315 314 314 313 312 311 311 311 312 311 306 305 305 304 304 304 304 303 302 302 301 301 300 299 299 299 299 298 298 297 297 297 296 296 296 296 296 295 295 296 295 295 295 295 295 295 295 295 295 295 295 295 295 295 295 295 296 297 296 297 298 299 302 307 312 314 315 316 316 317 319 321 323 324 325 324 322 322 323 323 326 329 329 327 325 321 319 320 321 323
317 318 316 314 315 315 315 315 314 314 313 312 311 310 310 311 311 306 304 305 304 304 303 303 303 302 301 300 300 299 299 299 298 298 297 297 296 296 296 296 296 295 295 295 295 295 295 295 295 295 295 295 295 295 295 295 296 296 296 296 296 295 295 296 296 297 297 296 297 298 301 303 306 310 313 316 317 317 318 320 321 323 325 326 326 325 323 324 327 329 328 325 322 320 320 322 322
316 315 314 314 314 314 314 314 314 314 313 312 311 311 309 310 312 309 304 304 304 303 302 302 302 301 300 299 299 299 298 298 298 297 296 296 295 295 295 295 295 295 294 295 294 294 294 294 294 295 294 295 295 295 295 296 296 296 296 296 296 296 295 295 295 297 298 297 296 296 298 298 298 301 305 311 315 317 318 318 319 319 322 325 327 327 325 324 326 328 327 325 323 320 319 320 319
315 314 313 313 313 313 313 313 313 313 313 312 311 312 309 310 313 309 304 304 304 304 302 301 301 300 300 299 299 298 298 298 297 296 295 294 294 294 294 294 294 294 294 294 294 294 294 294 294 294 294 294 295 295 295 295 295 296 296 296 296 296 295 295 295 296 297 297 296 295 296 296 296 296 298 302 306 312 317 318 319 319 320 322 326 327 326 325 326 327 326 325 323 320 320 319 318
313 313 314 315 313 313 314 313 313 313 313 312 311 312 311 310 310 307 304 304 304 303 302 301 300 300 299 299 299 298 298 297 297 295 294 294 293 293 293 293 293 293 294 294 294 294 294 294 294 294 294 294 294 294 294 294 294 295 295 295 295 295 295 295 295 295 296 297 297 295 294 294 295 295 295 297 299 306 313 315 317 319 320 321 323 326 327 326 326 327 326 325 323 321 321 320 320
314 312 313 316 315 316 315 312 313 312 312 312 312 314 313 310 307 305 304 304 304 303 301 301 300 299 299 299 298 298 298 297 296 294 293 293 293 293 293 293 293 293 293 293 294 294 294 294 294 294 294 294 294 294 294 294 294 294 294 294 294 294 295 295 295 295 295 296 296 295 294 293 294 295 295 295 296 301 308 311 314 317 319 320 321 323 327 327 327 327 326 324 323 322 321 320 321
315 312 315 317 316 322 318 311 313 312 312 312 312 314 313 308 306 305 305 304 304 302 301 300 300 299 299 299 298 298 297 296 295 294 293 293 293 293 293 293 293 293 293 293 294 294 294 294 294 294 294 294 294 294 294 293 293 293 293 293 294 294 294 295 295 295 296 296 296 296 295 293 294 295 295 296 295 297 302 307 311 314 316 319 320 322 325 328 327 327 326 324 323 322 321 320 321
315 313 322 323 317 322 319 310 312 312 313 312 311 315 313 307 306 305 304 304 304 302 301 300 300 299 299 299 298 298 297 296 295 294 293 293 293 293 293 293 294 293 293 293 293 294 294 294 294 293 294 294 293 293 293 293 293 293 293 293 293 293 294 294 295 295 295 296 296 296 295 294 294 295 295 296 296 297 298 302 306 309 313 316 318 321 323 326 327 327 325 323 322 322 321 321 321
322 316 322 323 316 317 315 311 311 311 313 312 311 314 312 308 306 305 304 304 303 301 300 300 299 299 299 298 298 298 297 295 295 294 294 293 293 293 293 293 294 293 293 293 293 293 293 293 293 293 293 293 293 293 293 293 293 293 293 293 293 293 293 293 294 294 295 295 296 296 295 294 295 296 296 296 297 297 297 298 300 303 307 312 316 319 321 323 326 327 324 322 322 321 320 321 322
328 322 318 318 315 313 313 313 311 311 312 312 311 311 312 310 307 304 304 303 302 301 300 300 299 299 298 298 297 297 296 295 295 294 294 294 293 293 293 293 293 293 292 292 292 293 293 293 293 293 293 293 293 293 293 293 293 293 292 292 292 292 293 293 293 294 294 295 295 295 295 295 296 296 296 296 297 297 297 297 298 299 301 306 312 316 318 321 324 325 324 322 321 320 320 321 322
322 321 317 316 316 312 312 312 311 313 313 312 312 311 312 310 306 304 303 303 302 300 300 300 299 299 298 298 297 297 296 295 295 294 294 294 293 293 293 293 292 292 292 292 292 293 293 293 293 293 293 293 293 293 293 293 292 292 292 292 292 292 292 292 293 293 293 294 294 295 295 295 296 296 296 297 297 298 297 297 297 298 298 301 307 311 314 317 322 325 324 322 321 320 320 320 321
315 315 315 314 314 311 311 311 311 312 312 312 312 312 312 309 305 304 303 302 302 300 300 299 299 299 298 298 297 296 296 295 294 294 294 293 293 292 292 292 292 292 292 292 292 293 292 292 292 292 292 292 293 293 292 292 292 292 292 292 292 292 292 292 292 293 293 293 294 294 295 295 296 296 296 296 297 298 298 297 297 297 297 299 302 306 309 311 316 322 325 323 321 320 320 320 321
311 312 313 313 313 311 310 311 311 310 310 313 313 312 312 309 306 305 302 302 300 299 299 299 299 299 298 298 296 296 295 295 294 294 294 293 293 292 292 292 292 292 291 292 292 292 292 292 292 292 292 292 292 292 292 291 292 292 292 292 291 291 292 292 292 292 293 293 293 294 294 295 295 295 296 296 297 298 298 298 297 296 296 298 300 302 305 308 310 314 321 324 322 320 321 322 323
310 312 312 312 313 312 311 312 311 308 309 314 313 311 311 309 308 304 301 300 300 299 299 299 299 299 298 297 296 295 295 295 294 294 294 293 292 292 292 292 292 292 291 292 292 292 292 292 292 292 292 292 292 292 292 291 291 291 292 291 291 291 291 292 292 292 293 293 293 293 294 294 295 295 296 296 296 297 298 298 298 297 296 297 299 300 302 305 307 308 313 321 323 321 321 323 324
312 312 312 313 314 313 313 313 311 308 309 313 313 310 309 309 309 304 301 300 300 300 299 299 299 298 298 297 296 295 295 295 294 294 294 293 292 292 292 292 291 291 291 291 291 291 292 292 291 291 291 291 292 291 291 291 291 291 291 291 291 291 291 291 292 292 292 292 293 293 293 294 294 295 295 296 296 296 297 298 298 298 296 296 298 301 301 302 305 306 308 316 323 322 321 323 324
313 313 312 314 315 315 314 314 313 310 309 311 310 308 307 307 308 304 301 300 300 299 300 299 299 298 297 297 296 295 295 295 294 294 293 293 292 292 292 292 291 291 291 291 291 291 291 291 291 291 291 291 291 291 291 290 290 290 290 290 290 290 290 290 290 291 290 290 291 291 292 293 293 294 295 295 296 296 297 297 298 298 297 296 297 300 302 301 302 305 306 309 319 324 323 323 324
317 316 314 314 315 314 314 314 312 310 310 311 309 307 308 308 306 304 301 300 299 299 299 299 298 298 297 296 295 295 294 294 294 293 293 293 292 292 292 292 291 291 291 291 291 291 291 291 291 291 291 291 290 290 290 290 289 289 289 289 289 289 289 289 289 289 289 288 288 289 289 291 292 293 294 295 295 296 297 297 297 298 298 296 296 299 301 301 300 302 303 304 311 321 324 323 324
318 319 317 316 315 314 314 314 311 310 311 312 308 308 311 309 306 303 301 300 300 299 298 297 298 298 296 296 295 295 294 294 293 293 293 292 292 292 292 291 292 291 291 291 291 291 291 290 291 291 290 290 290 290 289 289 289 289 288 288 288 287 287 287 287 288 288 287 287 287 288 289 290 292 294 294 295 295 296 297 297 297 298 297 296 298 300 300 300 300 301 302 304 313 321 323 323
315 317 318 315 312 311 313 312 310 311 311 310 307 308 309 307 306 303 300 300 300 298 297 297 297 297 296 295 295 294 294 293 293 293 293 292 292 292 292 291 291 291 291 291 290 290 290 290 291 290 290 290 289 289 289 288 288 288 287 287 286 286 285 286 286 286 286 286 286 286 286 287 288 290 292 293 294 295 295 296 296 297 297 297 296 297 300 300 300 300 300 301 302 306 314 321 323
316 315 313 311 309 311 312 310 310 310 309 308 307 308 307 307 307 303 300 300 299 298 298 297 296 296 295 295 295 294 294 293 293 293 292 292 292 292 291 291 291 290 290 290 290 290 290 290 290 290 290 289 289 289 288 288 288 287 287 286 286 285 285 285 285 285 285 285 285 285 285 286 287 288 291 293 294 294 295 295 296 297 297 297 296 297 300 301 300 299 300 301 303 303 307 316 323
316 313 309 308 308 310 310 309 309 307 306 307 308 308 307 308 309 304 300 301 299 297 297 296 295 295 295 295 294 294 293 293 293 292 292 292 292 291 291 290 290 290 290 290 290 290 290 290 290 290 290 289 288 288 287 287 287 286 285 285 284 284 284 284 284 284 284 284 284 284 284 285 286 287 290 292 293 294 294 295 296 297 297 297 297 297 298 300 299 299 300 301 303 303 304 310 320
311 310 309 309 310 309 307 308 307 305 306 307 308 308 307 309 310 305 301 302 301 298 297 296 295 295 295 294 294 294 293 293 292 292 292 292 291 291 290 290 290 290 290 290 290 290 290 290 290 289 289 289 288 287 287 287 286 285 285 284 284 283 283 283 282 282 282 283 283 283 283 285 286 287 290 292 293 294 294 294 295 296 296 297 298 296 295 297 298 297 299 300 302 303 303 305 313
307 307 310 311 312 309 307 308 307 306 310 309 308 309 307 307 309 304 302 303 303 299 296 296 295 294 294 294 294 293 293 293 292 292 291 291 291 290 290 290 290 290 289 289 290 290 290 289 289 289 289 288 288 287 286 286 286 285 284 284 283 283 282 282 281 281 281 281 282 283 284 284 286 287 289 291 292 293 294 295 295 296 296 297 299 297 295 296 295 296 298 299 300 302 303 303 306
307 311 311 311 315 313 310 311 309 309 314 311 307 307 306 306 308 305 303 303 302 299 297 296 294 293 294 293 293 293 292 292 292 291 291 291 290 290 290 290 290 290 289 289 289 289 289 289 289 289 288 288 287 286 286 285 285 284 284 283 283 282 281 281 280 280 280 280 281 282 282 283 284 286 287 288 290 292 293 295 297 297 297 298 298 297 297 296 295 295 296 298 299 300 302 303 304
310 314 310 309 316 316 313 314 311 310 313 309 304 305 304 304 306 306 304 301 299 298 296 295 293 293 293 293 293 293 292 292 291 291 291 290 290 290 290 290 289 289 289 289 289 289 289 289 288 288 288 288 287 286 285 285 284 284 283 283 282 281 280 280 280 280 279 279 280 280 280 281 282 284 285 286 288 291 292 294 296 297 298 298 298 297 297 296 295 295 296 297 298 299 301 303 303
310 313 311 311 314 314 314 315 313 313 315 308 301 302 304 305 305 305 302 299 296 296 295 294 293 293 293 293 293 292 291 291 291 290 290 290 290 290 289 290 289 289 289 289 289 289 288 288 288 288 288 287 286 285 285 284 284 283 283 282 281 280 280 279 279 279 279 279 278 279 279 279 280 282 283 285 287 290 291 292 294 296 297 298 298 297 297 296 295 295 296 297 298 299 300 302 303
310 312 312 312 312 314 315 315 315 315 314 309 302 303 308 307 303 300 297 295 294 294 294 294 294 293 293 293 292 292 291 291 291 290 290 290 290 290 289 289 289 289 289 289 288 288 288 288 288 288 287 287 286 285 285 284 284 283 282 281 281 280 279 278 278 278 278 278 278 278 278 279 279 280 282 284 286 288 290 292 294 295 296 298 297 297 296 296 295 294 295 296 298 299 299 301 303
310 309 309 309 311 313 312 310 310 309 308 306 303 306 308 303 298 296 295 294 293 293 293 293 293 293 293 292 292 291 291 291 291 290 291 290 290 289 289 289 289 289 289 288 288 288 288 288 287 287 287 286 286 285 284 284 284 283 282 281 281 280 279 278 277 277 277 277 277 277 278 279 279 279 281 282 284 287 289 291 293 294 295 297 297 296 296 295 294 294 294 296 297 298 299 300 302
309 306 309 310 307 307 306 307 307 306 306 306 304 306 305 300 298 295 294 294 293 293 292 292 293 293 292 292 291 291 291 291 291 291 290 290 289 289 289 289 289 289 289 288 288 288 287 287 287 287 286 286 285 285 284 284 284 283 282 281 281 280 278 277 277 276 276 277 277 277 277 278 278 278 279 281 283 285 288 290 292 293 294 296 297 297 296 295 294 294 294 295 296 297 299 299 301
308 308 310 308 305 304 305 307 307 305 306 306 305 305 303 304 303 296 294 295 293 293 293 292 292 292 292 292 291 291 291 291 291 290 290 290 289 289 289 289 289 289 288 288 288 288 287 287 286 286 285 285 285 284 284 284 284 283 282 282 281 280 278 277 277 276 276 276 276 277 277 277 278 278 279 280 282 284 287 290 291 292 293 295 296 297 296 295 294 294 294 294 295 296 298 298 299
304 306 305 305 307 306 305 306 307 306 307 308 307 305 303 304 302 296 294 295 293 293 293 293 292 291 292 292 291 291 291 291 291 290 290 289 289 289 288 288 288 288 288 288 288 287 287 286 286 285 285 284 284 284 284 285 284 283 282 281 281 280 279 277 276 276 276 275 275 276 276 276 277 278 278 279 281 282 285 288 290 291 292 294 295 296 296 295 295 295 294 294 295 295 297 297 298
299 301 302 303 305 305 305 305 305 307 308 308 309 307 304 304 302 297 295 295 294 293 293 294 293 291 292 292 291 291 291 290 290 290 289 289 289 288 288 288 288 288 287 287 287 287 286 286 285 285 284 284 284 283 284 284 284 283 282 282 281 280 278 277 276 276 276 275 275 275 275 276 276 277 277 278 279 281 283 285 287 290 291 293 294 295 295 295 295 295 295 294 294 295 295 297 297
300 300 301 301 301 303 305 303 302 304 305 306 307 306 305 304 301 298 297 296 294 293 295 295 292 291 292 292 291 291 291 290 290 290 289 289 288 288 288 288 288 287 287 287 287 286 286 285 285 284 284 284 284 284 284 284 284 283 282 281 280 279 278 277 276 275 275 275 275 274 274 275 275 276 277 277 278 280 281 282 285 289 290 291 293 294 294 295 295 294 295 295 294 294 295 296 297
304 302 302 301 301 303 304 303 302 302 303 304 305 305 306 304 300 298 297 296 295 294 295 293 291 291 292 291 291 291 290 291 290 289 289 289 288 288 288 288 287 287 287 287 286 286 285 285 284 284 283 283 283 284 284 284 284 283 282 281 280 279 279 277 276 275 274 275 274 274 274 274 274 275 276 276 277 278 280 281 283 287 289 290 292 293 294 294 294 294 295 295 294 294 294 295 296
Wind_Speed
7 5 2 5 4 5 5 3 3 2 3 3 0 2 2 2 3 4 5 4 4 4 7 5 6 6 4 1 2 13 16 9 4 7 5 2 6 18 19 19 20 16 14 17 20 19 16 13 13 13 14 14 13 13 12 11 9 9 9 9 10 10 11 12 12 12 12 11 11 11 11 11 10 10 9 10 11 13 14 15 14 13 12 10 10 11 11 13 14 15 14 14 14 14 16 15 15
7 4 1 5 6 5 3 1 2 2 5 4 3 2 1 3 5 5 5 5 3 3 7 6 5 7 7 3 4 14 19 19 16 13 11 13 12 19 22 21 19 15 12 14 16 17 18 15 14 12 12 13 13 13 13 13 11 10 10 10 10 10 11 12 13 13 14 14 13 12 12 12 12 11 11 12 13 14 15 15 15 15 14 12 12 11 12 13 14 14 15 15 15 15 16 15 15
8 5 3 4 7 4 2 2 3 3 4 4 3 3 1 4 4 4 6 8 5 6 9 7 6 6 10 8 5 10 12 22 24 12 14 22 18 20 22 19 15 11 11 12 14 16 19 18 16 13 12 13 12 13 14 14 13 13 13 12 12 11 12 13 13 13 14 15 15 13 13 13 13 13 13 14 15 15 15 15 16 15 15 14 14 13 12 13 14 14 15 15 15 16 16 15 15
7 6 5 4 5 3 2 3 2 4 4 4 2 5 2 4 4 3 8 12 9 9 9 8 6 5 10 9 7 11 10 18 26 20 16 21 18 18 17 15 12 8 8 10 12 14 17 18 16 14 13 13 12 13 13 14 14 14 14 14 14 13 14 14 15 14 14 16 15 14 15 14 14 15 15 15 16 16 16 16 16 16 17 16 15 14 12 13 14 14 13 14 14 15 17 16 15
5 4 7 6 3 2 1 2 1 5 3 3 3 2 2 3 5 3 7 13 12 10 9 8 3 6 15 17 13 9 9 10 21 24 18 19 16 15 16 15 12 8 8 7 8 9 12 15 15 13 11 11 11 12 13 14 15 14 15 15 15 15 15 16 16 15 15 16 17 16 16 16 15 16 16 17 17 17 18 17 16 17 18 17 15 14 14 13 13 13 12 13 13 14 17 17 15
5 4 7 7 3 1 2 3 3 5 1 3 5 2 1 3 5 4 7 11 14 12 11 9 3 8 16 20 24 19 16 11 16 22 18 18 16 14 14 14 14 12 11 8 7 8 8 10 11 11 10 10 9 9 11 13 14 15 15 16 16 16 16 17 17 17 17 17 18 18 17 18 18 19 19 18 18 18 18 17 17 18 18 17 15 14 15 14 14 14 14 13 14 15 17 18 17
8 6 7 6 2 2 3 3 3 3 2 4 6 4 3 4 5 6 5 6 10 11 11 10 7 13 11 11 19 22 23 18 16 18 16 17 16 13 12 12 13 14 15 12 10 10 10 10 9 10 9 9 9 9 9 11 13 14 15 16 16 17 16 17 18 19 18 18 19 19 18 20 20 21 21 21 20 20 20 19 19 19 18 17 16 15 15 15 15 17 17 15 14 15 17 19 19
9 7 5 4 2 2 3 2 2 3 2 4 6 6 5 5 5 4 3 3 6 7 8 7 10 12 10 14 14 17 23 21 18 15 15 15 15 14 12 12 12 13 13 12 12 11 11 11 10 9 8 8 9 9 9 9 11 13 14 16 16 17 18 18 18 19 19 20 20 20 20 21 21 20 21 22 21 22 22 22 21 20 19 18 18 16 16 17 17 18 18 18 16 15 17 20 21
9 6 3 3 2 3 2 1 1 2 3 5 6 7 7 6 6 4 3 5 6 8 7 5 10 9 11 22 16 19 24 21 19 17 18 16 15 15 14 14 14 13 12 12 12 11 11 11 10 9 8 8 8 9 9 9 10 11 13 14 16 17 18 19 19 20 20 21 21 21 22 23 22 21 22 22 22 24 24 23 22 22 21 20 19 18 17 18 18 18 18 19 19 17 18 21 23
7 4 1 2 2 4 2 0 1 3 4 5 6 8 5 4 7 7 5 7 7 8 8 6 13 15 15 17 13 19 22 19 18 19 20 16 15 16 16 16 14 14 13 13 13 13 13 12 11 10 9 8 8 8 9 9 10 11 12 13 15 16 18 20 21 21 21 22 22 23 23 23 23 23 24 25 25 25 24 24 24 23 22 22 22 21 19 20 20 20 19 20 21 19 20 22 23
6 3 1 3 3 3 1 2 2 4 3 3 5 7 6 5 7 7 7 8 9 10 9 5 10 21 20 14 14 17 16 19 20 18 18 15 15 15 15 14 13 13 14 15 14 15 14 13 13 12 12 11 11 10 10 9 10 11 12 13 14 16 17 20 22 22 22 23 24 24 24 24 24 24 25 27 28 27 25 25 25 24 24 24 24 23 22 22 21 21 21 21 21 21 22 23 24
5 3 3 3 2 1 2 3 4 4 3 2 2 4 9 11 7 4 6 6 9 12 11 7 3 13 13 9 13 15 16 20 19 15 14 14 15 15 13 13 13 13 14 16 15 16 16 16 15 15 15 14 14 13 13 12 12 12 12 13 14 16 17 19 21 23 23 24 25 25 26 26 26 26 26 27 28 27 28 27 25 25 27 27 25 25 25 25 23 22 22 22 22 22 23 24 26
4 2 5 2 3 2 1 3 4 3 4 1 2 3 9 10 6 4 8 7 7 9 9 9 4 9 9 8 12 18 18 19 16 13 12 13 14 13 14 14 14 15 15 16 17 18 18 18 18 17 17 17 17 16 15 15 15 15 15 15 15 16 17 19 20 22 23 25 26 25 26 27 28 28 28 28 28 28 29 29 28 27 28 29 27 27 27 26 25 24 23 22 22 22 23 25 27
4 2 4 1 1 0 1 3 2 4 1 3 0 6 9 7 5 6 10 8 6 9 7 8 6 9 9 7 12 21 18 15 13 12 11 12 12 13 15 15 16 16 16 17 18 19 19 20 21 20 20 20 20 20 19 18 17 16 17 17 18 19 19 19 20 21 22 24 25 26 27 29 30 30 30 31 30 29 30 32 32 29 28 29 28 28 28 28 27 27 25 23 23 22 24 26 28
4 2 3 1 3 2 1 2 3 6 2 2 4 10 12 8 6 8 9 7 10 11 8 8 7 6 7 7 11 19 16 12 12 11 10 9 11 12 13 14 16 17 17 18 20 22 22 23 23 24 24 24 24 23 23 22 21 20 18 18 19 20 21 21 21 21 21 22 24 26 28 30 32 32 32 33 33 32 31 31 31 30 29 29 29 29 29 29 29 29 27 25 25 24 25 26 28
3 1 4 2 2 1 0 2 3 5 1 0 7 11 11 6 6 7 6 9 18 17 12 16 15 12 16 18 14 14 11 10 10 10 9 9 10 12 13 14 15 17 18 19 21 23 24 25 25 26 27 27 27 26 26 25 24 23 22 21 20 20 20 22 23 22 21 21 22 24 27 29 31 32 33 34 35 33 30 31 31 30 30 30 30 31 31 31 30 31 29 28 27 26 26 26 28
4 2 4 3 1 0 1 1 2 3 1 1 6 9 7 3 3 6 9 18 24 24 24 24 23 21 23 21 13 9 7 8 9 9 10 12 14 15 16 17 17 18 19 20 22 24 25 26 27 27 28 28 29 29 29 29 28 27 26 26 25 23 21 21 22 22 22 22 21 21 23 27 29 30 31 34 36 33 30 30 30 29 31 31 30 31 32 32 32 32 31 29 28 27 27 27 29
4 2 3 2 1 1 2 2 2 3 2 1 4 7 7 3 1 5 13 21 24 26 27 24 22 22 20 15 9 6 6 7 9 12 14 17 18 19 20 20 20 20 20 21 23 24 26 26 27 28 28 29 29 30 30 30 30 30 30 29 29 28 26 24 23 22 23 23 23 22 22 25 27 29 29 31 34 34 31 30 30 31 33 32 30 31 31 32 33 33 32 30 28 27 28 28 29
3 3 2 3 4 2 1 4 4 4 4 2 5 8 8 2 1 5 6 11 18 19 18 20 21 18 14 11 8 6 7 10 13 16 18 20 20 22 23 22 22 23 22 23 23 25 26 27 28 29 29 30 30 30 30 30 30 30 30 31 31 31 30 28 27 24 23 24 25 25 24 25 26 29 30 30 31 32 32 32 33 33 34 32 31 32 33 34 34 33 33 32 29 28 28 29 30
2 3 2 5 4 2 3 9 9 7 6 4 5 6 8 2 2 7 9 10 13 11 10 15 19 18 14 11 8 8 9 12 15 17 19 20 21 22 23 24 24 24 24 24 24 26 27 28 28 29 29 30 30 30 30 30 30 30 30 30 30 30 31 31 29 27 25 24 25 27 28 27 26 28 30 31 31 32 32 33 33 34 35 34 34 35 35 36 36 35 35 34 32 30 30 30 30
2 2 2 6 2 2 4 9 8 8 8 4 4 5 7 5 4 8 13 10 8 8 12 16 19 18 15 12 10 10 11 15 17 18 20 20 20 21 22 23 23 23 24 24 25 27 28 29 30 31 32 33 34 34 33 33 33 33 33 32 31 30 30 30 31 29 28 26 25 26 28 30 30 29 29 31 33 34 33 33 33 34 35 36 36 37 38 38 38 36 36 36 34 33 33 30 29
3 1 3 3 2 1 4 9 8 8 7 4 5 5 3 5 8 8 13 7 5 11 16 17 17 16 12 11 10 10 13 16 18 19 20 20 20 20 21 21 21 23 24 25 27 28 30 31 33 34 34 35 34 35 36 36 36 37 37 36 35 33 31 30 30 30 30 29 28 27 27 29 31 32 31 31 32 34 36 35 34 35 36 37 38 40 41 40 38 36 35 36 35 35 35 32 30
2 3 2 1 1 2 6 8 8 6 5 3 4 2 3 12 11 11 17 13 13 15 15 16 15 12 9 7 7 9 13 15 17 18 19 21 21 20 21 23 24 26 27 28 29 30 31 33 34 34 34 35 34 35 37 38 39 39 39 39 39 37 34 30 28 29 30 30 30 29 29 30 30 32 33 34 33 34 36 37 37 36 37 39 40 41 42 42 40 36 34 35 35 36 36 33 32
2 3 4 3 4 5 8 8 6 5 3 2 4 4 5 15 9 11 19 17 18 15 13 14 12 10 6 5 7 10 13 15 16 17 18 20 21 21 22 25 28 29 31 32 32 33 33 35 36 35 36 36 37 38 39 41 42 42 42 42 42 41 38 33 29 27 28 29 30 30 30 31 31 31 31 34 35 36 37 38 38 38 39 40 41 41 41 42 42 38 36 36 36 37 36 35 34
5 3 4 3 5 7 9 7 5 3 1 1 7 5 7 17 13 11 16 17 17 14 12 12 10 8 6 7 8 9 11 14 15 16 18 20 22 23 25 27 30 32 34 35 35 36 35 36 37 37 38 39 40 40 41 43 44 45 45 45 44 42 39 35 33 30 27 27 29 30 30 30 31 32 32 31 33 36 38 40 40 40 41 42 43 43 42 43 43 40 37 36 36 36 35 33 31
3 3 3 2 6 8 8 6 4 2 3 1 7 9 11 22 17 8 13 17 16 14 13 12 10 9 9 10 9 9 11 13 15 18 18 21 24 27 29 31 33 34 35 36 37 38 37 37 38 39 40 40 41 41 42 42 42 43 43 44 44 43 41 38 38 36 32 29 28 29 31 32 32 33 33 32 31 33 37 40 41 41 42 44 46 45 44 45 44 41 38 37 36 36 35 34 32
4 2 5 7 11 11 7 7 4 4 5 1 3 6 14 23 13 3 13 18 15 15 14 12 11 11 11 10 10 11 12 12 15 18 21 23 27 30 31 32 33 34 35 36 37 37 37 38 39 39 38 39 40 41 41 41 40 40 40 41 41 41 42 42 41 38 37 36 32 30 32 34 35 34 34 34 33 32 34 37 40 41 42 44 46 48 47 46 47 45 43 40 39 39 38 37 36
4 5 8 11 13 13 9 8 5 5 5 3 2 4 15 15 4 8 21 20 16 16 16 14 12 11 11 9 9 11 12 11 13 19 24 26 28 30 30 30 31 32 33 34 34 35 36 37 38 38 38 38 39 40 41 41 41 40 39 40 39 39 40 41 42 41 40 40 39 36 34 35 37 38 38 37 36 35 34 35 37 39 41 43 44 49 50 49 49 49 46 43 41 40 39 37 37
5 3 4 8 7 6 8 7 6 5 3 3 4 2 8 7 4 17 26 21 18 17 18 15 13 12 11 10 9 10 11 11 14 20 24 25 27 27 26 27 28 29 30 31 32 33 35 36 36 36 36 37 38 39 40 41 41 41 40 40 41 42 42 42 42 43 43 42 42 42 40 36 36 39 40 39 38 36 36 36 35 36 38 41 43 46 51 52 51 49 46 44 42 40 37 36 37
5 1 2 2 6 4 8 7 5 5 3 3 2 2 4 3 10 23 26 23 21 19 19 16 14 14 11 10 9 9 9 11 15 19 23 23 24 24 24 26 27 28 29 30 32 33 33 33 33 33 34 36 38 38 39 39 40 41 41 41 42 44 45 45 43 43 43 43 44 45 44 40 36 35 37 38 38 36 36 38 36 35 35 38 42 44 48 52 53 51 48 45 43 41 39 37 37
1 1 1 1 1 4 7 8 6 4 5 3 3 3 6 3 12 25 27 24 23 21 20 18 16 14 11 10 9 8 8 11 13 16 20 21 21 23 25 27 29 29 30 32 33 33 32 30 30 32 33 35 37 37 38 39 39 40 41 41 42 43 44 45 45 44 43 44 46 46 46 44 39 35 34 35 36 36 37 37 37 36 34 35 38 42 46 52 57 55 51 48 44 41 40 39 39
2 0 3 2 3 4 6 6 8 6 4 5 5 3 4 4 12 23 27 24 23 23 21 19 17 14 11 10 8 8 7 10 11 12 17 20 23 26 28 29 30 30 31 33 33 32 30 28 29 31 33 35 36 38 39 40 40 40 41 42 42 42 43 44 45 44 44 45 46 47 47 46 42 39 36 35 34 34 34 36 37 37 36 34 34 38 43 48 56 57 52 50 47 43 41 40 40
3 1 3 4 2 3 3 3 6 7 3 4 5 3 2 3 12 22 24 24 23 23 21 19 17 14 11 9 8 7 7 9 9 9 13 21 25 27 29 30 31 30 30 31 31 29 27 27 29 31 33 36 38 41 42 43 44 43 43 43 44 43 43 44 44 44 44 45 45 47 48 47 44 43 40 38 36 34 34 35 36 38 38 36 34 33 38 43 51 56 53 50 48 45 43 42 42
4 2 1 4 3 3 2 5 5 5 3 4 6 5 5 4 14 23 23 24 23 21 21 19 17 14 11 10 8 7 7 8 7 6 12 21 26 27 29 30 30 29 29 29 28 27 27 28 30 33 36 37 39 42 44 46 45 45 45 45 46 45 44 44 45 45 45 45 46 47 47 46 46 45 44 42 40 38 37 36 35 37 39 39 37 32 33 40 47 53 53 52 49 46 45 45 45
3 3 3 4 4 3 4 4 4 4 4 5 5 6 7 3 12 19 22 23 21 21 21 19 18 15 12 10 8 7 6 7 5 4 12 20 25 26 28 29 29 28 29 29 28 28 28 31 33 35 37 38 39 42 45 47 46 45 46 47 49 48 46 45 45 46 46 46 47 47 46 45 46 46 46 45 43 42 41 39 37 37 38 39 41 38 33 36 42 50 55 53 50 49 48 47 47
5 6 3 4 5 6 6 5 5 5 4 6 6 6 6 5 10 13 18 22 21 21 21 19 18 15 13 10 8 7 5 5 2 5 12 19 22 24 26 29 29 29 29 29 29 29 31 33 35 37 39 39 40 43 45 47 46 45 47 49 51 51 49 47 46 46 46 46 46 47 47 46 46 46 46 45 44 44 44 43 42 40 39 38 40 44 42 37 37 43 55 59 54 52 50 48 48
3 4 3 6 6 6 7 6 4 4 3 6 7 7 7 6 10 12 17 20 19 20 19 19 18 15 13 11 8 7 6 3 3 6 11 16 18 22 26 29 30 30 30 31 30 31 32 34 36 39 40 39 39 43 46 47 45 46 48 50 52 52 51 49 48 48 47 47 46 46 47 47 46 45 45 45 45 45 45 45 46 45 41 38 38 42 47 45 40 40 46 58 60 55 53 50 50
2 3 4 6 5 7 8 5 4 3 1 5 6 6 8 7 9 12 17 15 16 21 20 19 18 16 13 11 9 7 6 2 5 7 9 14 18 22 26 29 30 30 32 33 32 32 32 33 37 40 40 39 40 43 46 46 44 44 46 50 52 52 50 48 48 50 49 48 47 46 46 47 46 45 44 45 46 46 46 46 47 47 44 39 38 40 44 49 49 47 43 44 57 55 55 54 52
3 3 2 4 4 5 7 4 3 1 1 4 6 7 8 10 8 11 18 16 16 23 22 21 19 17 15 13 11 8 6 3 5 7 9 14 18 21 25 28 29 30 32 34 33 32 33 35 39 40 39 40 41 42 44 45 43 43 45 47 47 48 48 48 48 50 49 48 47 46 44 44 45 45 44 44 46 47 47 47 48 48 46 40 38 39 41 46 54 54 47 39 52 56 54 56 55
4 4 2 5 5 2 4 4 3 4 3 4 8 9 8 8 4 6 15 16 16 19 20 20 20 18 15 14 12 8 5 2 5 6 9 14 18 20 24 27 28 30 32 33 33 34 35 38 40 40 39 39 41 42 45 45 43 43 44 45 45 46 49 51 52 52 50 47 47 48 45 44 45 46 45 44 45 46 47 48 48 47 47 42 37 38 39 43 52 57 48 43 49 62 57 53 57
5 6 5 6 5 5 6 4 5 6 5 5 7 9 7 6 7 5 7 10 13 17 19 18 18 17 15 14 12 7 3 3 5 5 9 14 17 20 24 27 27 28 30 31 32 35 37 40 40 40 40 41 42 44 45 44 44 46 49 50 52 53 54 54 53 54 54 51 50 51 49 46 45 46 46 45 45 46 47 48 49 48 46 44 39 36 37 40 48 54 50 49 47 55 64 57 56
4 5 7 7 5 5 6 4 5 5 5 4 1 4 6 3 8 7 5 7 10 13 16 17 18 18 16 15 11 6 1 3 4 5 10 13 16 20 24 25 25 27 29 31 33 35 38 38 38 40 42 43 45 45 45 44 47 50 51 53 54 55 55 54 52 53 56 57 53 51 50 46 43 45 45 45 45 45 45 47 48 48 47 44 40 36 36 39 46 50 48 51 52 45 58 64 58
3 5 6 6 5 4 6 3 2 2 4 4 2 2 7 1 5 9 8 8 10 10 10 15 20 20 18 15 10 5 0 2 3 6 9 12 17 20 22 23 24 28 30 32 35 37 37 37 38 41 43 45 46 46 46 47 50 52 52 52 53 51 50 52 54 53 54 55 53 51 51 49 43 42 44 44 45 45 45 46 48 49 47 43 40 35 33 36 43 46 44 46 51 48 44 59 66
4 4 5 5 3 5 6 3 4 4 2 4 3 4 7 7 6 9 11 10 9 9 9 12 18 20 18 14 8 4 1 2 3 6 9 13 17 19 21 23 25 28 31 33 36 37 38 38 40 42 44 46 46 45 46 47 48 51 52 53 53 51 49 52 53 52 50 50 52 51 51 52 45 39 41 42 44 45 44 45 47 47 45 42 39 35 31 31 37 42 43 45 47 50 48 47 68
6 4 5 4 5 7 6 4 6 3 3 6 7 6 5 8 4 5 10 10 10 12 12 11 16 19 17 13 8 3 1 1 3 6 9 13 17 18 21 23 26 29 32 34 35 36 38 40 42 43 45 47 46 46 47 47 47 49 50 50 51 52 52 52 52 52 51 51 54 55 53 54 48 37 36 39 41 42 43 43 44 45 43 41 38 33 30 30 33 37 41 43 44 48 53 44 56
4 3 2 3 4 6 4 4 5 1 1 9 8 7 5 7 2 4 6 8 11 12 11 10 15 20 18 13 8 4 3 2 3 6 10 13 16 18 21 25 28 31 33 35 36 36 39 41 43 44 46 47 47 48 48 48 48 49 49 49 50 53 54 54 54 54 55 54 55 54 49 46 42 35 34 36 37 38 40 41 42 43 42 41 38 32 31 33 34 37 39 41 44 46 52 51 40
1 2 3 4 5 3 1 2 0 2 4 9 8 10 7 6 3 7 6 6 10 11 10 10 14 20 18 12 9 7 5 2 4 7 10 13 15 18 23 28 31 32 34 35 36 38 40 42 44 45 47 48 49 50 50 48 49 49 50 51 52 53 54 54 55 55 54 53 50 45 41 39 36 34 35 35 35 34 36 38 40 42 40 39 37 33 34 36 36 38 38 40 44 46 49 52 43
3 3 3 4 5 3 3 3 2 1 6 6 5 9 8 6 5 7 7 5 8 13 14 12 12 17 18 12 10 8 4 2 4 8 10 12 16 22 28 30 31 32 35 36 37 39 41 43 45 47 48 49 50 51 49 48 49 50 51 52 52 52 52 52 53 54 52 48 47 45 45 43 39 36 35 36 35 34 33 34 38 41 38 36 37 35 35 37 37 36 36 38 43 45 47 48 47
4 4 4 3 5 4 3 2 1 4 7 4 2 3 5 9 7 7 10 6 8 14 16 17 17 18 18 13 11 8 3 3 5 7 10 14 21 27 29 28 30 32 34 36 38 40 41 43 45 47 49 50 51 52 50 49 50 51 52 51 51 51 51 51 50 51 49 47 49 50 47 45 44 41 39 37 35 34 34 35 38 39 37 35 36 36 36 36 36 34 34 36 39 44 45 44 47
4 3 3 2 1 3 5 4 3 5 5 4 2 2 3 6 5 6 10 7 10 17 20 23 22 20 17 14 11 7 4 4 5 7 12 19 25 27 27 27 29 32 33 35 39 41 41 43 44 46 49 50 51 51 50 50 51 52 51 50 50 51 51 51 48 47 47 47 48 47 44 43 43 42 41 41 39 36 37 37 39 38 37 37 37 36 35 35 36 33 31 34 35 41 45 44 46
5 4 5 4 3 3 5 3 4 6 6 4 2 0 4 3 4 3 6 9 15 21 24 23 20 17 16 14 11 7 5 3 5 10 17 22 25 26 27 27 29 31 33 36 39 41 41 42 44 46 48 50 51 51 50 52 54 53 51 50 51 51 52 51 49 45 43 44 45 44 42 41 41 42 40 41 41 39 39 39 37 37 37 37 34 34 35 34 34 33 31 32 32 35 40 42 43
3 3 4 2 4 4 4 3 4 3 6 5 3 3 5 3 3 3 8 10 13 18 21 21 19 17 16 13 10 6 3 3 9 14 19 21 23 26 27 28 30 31 32 36 40 41 40 41 44 45 48 49 50 51 51 53 55 54 53 53 52 53 53 51 49 46 42 42 43 41 41 40 41 42 38 37 39 39 39 38 35 33 34 35 32 32 34 33 33 33 31 31 32 31 33 37 39
1 3 3 4 4 4 2 3 1 2 5 6 3 4 4 1 2 1 6 6 8 10 13 16 18 18 16 12 9 4 3 9 12 14 17 20 23 25 26 28 30 31 33 37 40 39 38 40 43 45 47 49 50 50 51 53 55 55 55 54 54 55 54 50 47 47 44 43 42 39 40 40 40 41 38 35 36 37 38 37 33 29 31 33 33 33 33 31 31 32 31 30 31 31 29 32 36
3 3 4 3 1 2 1 2 3 1 5 6 3 6 7 2 2 3 5 7 8 7 8 12 15 18 16 11 7 0 7 9 10 12 16 20 23 25 27 29 30 31 35 39 40 38 38 40 42 44 46 48 50 51 52 54 55 56 56 55 57 59 56 50 47 47 46 44 44 41 39 40 41 42 40 34 34 37 38 37 33 28 27 29 32 33 33 31 31 31 31 31 31 31 30 31 34
3 2 2 1 1 2 2 2 2 3 6 6 2 5 7 5 4 6 10 12 12 9 8 9 11 14 15 10 5 1 6 5 7 12 17 21 23 26 29 30 31 32 36 39 39 38 39 40 41 43 45 46 48 49 51 54 55 55 56 55 58 62 57 49 46 47 47 45 45 44 41 41 42 41 39 35 34 37 38 37 35 30 25 25 27 31 32 30 31 32 31 32 31 31 31 31 34
3 1 3 0 2 3 2 2 2 3 6 7 5 5 4 5 7 12 15 15 13 11 9 8 9 14 15 10 5 1 1 3 7 14 18 21 24 27 30 31 32 34 37 38 38 38 39 41 42 43 45 46 47 49 50 52 54 54 54 55 60 62 55 47 46 47 48 47 44 44 43 42 42 39 37 37 37 38 38 37 36 31 25 22 23 27 30 29 31 32 30 30 31 30 31 31 33
3 2 2 2 2 1 2 2 3 3 7 5 6 9 5 2 4 11 16 15 12 11 9 8 11 16 15 10 7 4 2 4 9 15 19 22 25 29 31 32 33 36 38 38 37 38 39 41 43 43 44 46 47 49 50 51 53 53 53 55 59 59 52 48 47 47 47 46 44 43 43 42 42 41 38 38 39 39 38 38 37 33 27 23 21 23 27 28 29 31 29 28 29 30 31 31 32
5 5 5 5 5 2 3 6 3 4 6 4 5 12 8 2 2 6 10 10 10 11 10 8 13 18 14 10 8 3 2 4 10 15 19 22 26 30 32 33 36 37 39 38 38 39 40 41 43 44 44 46 47 49 51 51 53 53 53 55 56 56 53 49 47 46 46 47 44 42 43 43 43 42 39 38 38 38 39 40 38 36 31 25 22 20 23 26 28 30 30 29 27 27 30 31 31
Wind_Direction
13 7 38 96 71 51 55 103 103 359 69 80 174 93 355 23 90 59 42 41 76 35 33 55 42 32 19 21 111 65 48 25 54 101 72 28 351 360 5 356 353 358 3 359 351 351 355 355 351 351 349 345 343 338 332 324 312 304 297 288 288 287 285 281 280 276 271 270 277 280 280 284 285 288 288 291 297 298 297 296 296 294 289 282 276 269 263 258 249 247 247 248 249 253 255 256 248
15 2 348 70 51 29 34 99 86 26 58 47 5 81 357 8 52 79 80 73 93 25 23 43 63 44 41 45 102 70 42 38 71 100 55 12 350 352 354 351 350 352 2 3 354 349 353 357 349 346 346 343 340 338 335 330 320 311 301 295 294 288 287 282 283 280 274 273 273 278 277 278 280 280 282 286 290 292 291 293 296 297 294 289 286 276 265 260 252 247 246 247 245 247 252 255 252
9 6 344 32 48 27 338 51 86 75 77 80 14 341 29 48 59 114 112 98 85 50 34 46 77 36 42 54 80 93 53 44 53 59 29 10 4 0 354 354 352 353 360 0 4 353 350 357 352 344 340 337 332 328 328 325 322 315 306 302 300 293 291 282 281 278 273 274 271 276 276 274 275 274 276 283 285 285 284 288 292 294 294 292 291 286 273 262 256 251 247 246 243 244 249 251 252
4 20 20 12 44 36 23 65 133 111 102 124 63 330 28 76 48 95 115 102 84 65 48 46 71 29 45 44 53 85 58 43 39 36 31 21 22 16 11 12 4 3 5 358 10 360 345 350 353 348 338 334 328 322 320 320 319 312 306 305 303 298 294 285 279 277 276 277 274 278 277 271 273 275 277 279 279 281 283 285 287 288 289 289 286 284 278 268 262 259 255 250 246 245 249 249 248
3 27 29 17 34 28 63 67 87 94 114 150 120 313 20 81 34 38 123 104 88 74 55 53 59 44 60 50 52 62 20 29 35 36 40 32 34 29 27 28 24 30 25 4 0 358 343 345 353 353 341 335 330 322 316 314 314 310 305 302 302 298 295 291 286 282 283 285 281 280 281 276 278 281 281 279 276 279 284 284 283 283 286 284 277 274 274 269 264 263 261 256 250 248 250 250 244
19 29 21 14 25 7 61 58 61 88 148 142 123 202 64 59 32 52 120 102 86 75 57 54 45 82 84 68 64 54 31 37 32 33 38 29 26 27 25 24 30 37 37 29 0 355 350 352 358 357 349 337 328 319 311 308 307 306 304 300 299 296 295 293 291 285 280 286 285 280 283 283 282 283 282 280 279 280 283 282 279 279 280 279 271 268 269 265 259 254 252 250 247 248 249 250 245
30 24 15 18 32 19 82 96 145 121 35 111 128 164 108 53 33 49 96 102 88 72 56 48 64 94 101 89 68 44 38 44 39 36 37 31 21 19 18 11 17 28 31 31 23 14 10 10 8 0 353 340 327 315 307 303 301 301 301 298 297 295 294 291 292 288 281 286 286 283 286 286 284 284 282 279 279 279 278 277 276 275 272 271 267 262 262 260 255 251 249 246 242 243 246 247 246
34 21 15 39 42 28 78 85 188 151 76 112 124 128 96 60 42 34 64 95 116 89 53 45 72 95 79 84 77 34 36 40 45 45 39 36 21 13 9 1 2 16 22 21 25 19 16 16 11 4 354 341 327 314 304 298 293 295 298 297 295 292 293 291 290 289 286 286 286 285 284 282 280 280 279 274 275 277 278 277 276 276 272 268 266 260 257 254 253 252 252 249 244 242 243 243 243
29 18 17 55 43 15 33 1 32 113 96 102 95 96 91 76 60 40 32 38 109 92 45 46 67 101 84 78 73 32 32 32 42 41 33 30 16 13 7 4 1 6 8 8 14 12 14 11 7 3 353 343 328 315 303 294 287 285 288 292 294 291 291 291 288 286 285 283 284 285 284 282 278 279 279 273 276 281 280 280 279 278 273 268 266 260 254 252 251 250 252 251 246 242 241 240 239
24 20 14 68 47 11 4 291 62 92 99 107 95 90 88 85 71 54 55 47 94 80 48 83 77 92 90 75 57 30 28 21 23 21 23 23 13 13 11 13 7 4 3 2 4 5 7 2 359 353 346 339 327 316 303 294 287 280 276 279 284 287 287 286 284 283 282 282 283 282 283 283 280 281 281 279 282 282 279 279 278 276 271 267 266 261 254 251 249 248 249 249 247 242 240 239 237
16 1 8 61 48 8 26 157 117 113 109 106 79 73 76 84 79 46 55 71 84 71 53 85 94 98 93 77 61 38 27 15 12 16 19 16 12 15 18 23 16 13 16 14 12 13 16 11 6 357 350 341 330 320 310 301 290 283 275 272 272 276 279 280 279 280 280 281 282 281 281 281 279 280 281 281 283 282 277 276 274 273 272 269 267 263 256 251 248 246 246 246 247 244 242 241 238
9 345 45 76 111 242 212 145 130 116 57 49 41 72 84 78 81 40 55 84 84 71 52 33 95 110 98 88 63 37 28 22 23 30 19 12 17 19 23 30 32 33 35 34 30 30 32 28 24 17 8 359 349 338 326 316 304 294 283 276 272 270 271 274 275 276 277 276 277 277 278 279 279 280 280 281 282 280 275 274 274 273 274 272 268 264 259 254 249 246 244 243 244 244 243 242 241
21 7 67 112 195 209 191 120 137 104 33 348 220 125 97 78 75 78 84 91 91 79 39 18 79 109 98 98 56 34 32 27 29 31 18 21 24 24 28 34 39 40 38 36 33 32 33 32 31 27 21 16 9 1 351 338 325 314 302 291 281 275 269 270 271 274 276 275 275 276 278 278 278 278 279 281 282 280 273 272 274 275 275 273 269 264 261 258 254 250 248 244 244 246 245 244 244
22 8 91 169 289 172 132 97 118 91 60 261 203 104 104 94 84 85 93 83 64 84 61 32 93 108 93 101 52 42 41 28 25 22 18 27 28 31 36 39 39 39 34 29 30 27 27 28 26 25 23 19 15 10 5 358 349 337 325 313 301 292 282 276 272 272 276 276 275 275 276 278 279 278 277 279 281 280 276 272 273 274 274 272 269 263 262 262 259 256 253 250 250 250 246 246 247
16 8 99 118 345 343 92 95 116 102 142 256 74 102 100 98 107 82 85 83 55 79 96 48 72 105 73 86 60 51 48 23 16 14 12 21 28 34 36 39 38 39 33 26 29 26 23 23 20 20 17 15 12 9 6 2 360 354 347 336 321 308 298 292 285 278 276 277 276 274 273 275 277 278 278 278 279 281 281 276 273 274 273 273 271 265 262 261 261 259 257 256 257 255 250 249 250
20 33 77 62 330 315 266 91 103 96 138 235 95 110 100 89 109 72 50 88 75 73 86 64 71 97 81 81 75 56 42 12 6 0 1 15 25 29 31 35 34 36 32 25 28 25 21 19 16 15 12 11 9 5 2 360 358 356 353 349 340 326 310 300 295 292 287 283 281 278 278 276 276 277 278 278 277 278 282 279 275 274 273 274 274 269 265 262 261 258 258 259 258 256 252 250 252
13 47 62 15 299 189 251 94 104 126 137 36 86 100 108 101 88 73 66 87 87 80 83 80 82 91 86 84 82 60 30 358 359 2 13 27 28 29 28 29 29 29 26 23 24 21 17 14 12 9 7 6 4 2 359 357 356 354 353 351 348 342 329 312 299 295 293 291 287 285 287 286 282 278 275 276 277 275 279 279 275 273 274 274 273 270 268 267 263 259 258 257 256 256 254 250 250
14 81 70 326 237 178 223 140 113 132 121 55 78 89 113 125 37 92 87 87 92 87 85 90 89 88 89 92 86 63 27 9 22 30 37 39 36 35 32 30 28 25 22 19 17 14 12 9 7 4 2 360 357 356 354 353 351 350 350 349 348 347 343 333 317 302 293 290 289 287 290 290 289 285 279 277 277 275 276 277 273 272 274 274 270 269 270 270 266 261 259 256 255 255 254 250 248
30 96 55 249 216 217 143 93 80 94 112 88 59 86 106 121 6 96 101 90 94 90 86 91 90 88 91 91 80 62 42 36 40 42 45 44 40 38 34 31 27 24 20 16 12 9 7 5 2 360 358 355 351 349 347 346 345 345 345 344 344 344 344 343 336 323 306 295 290 288 290 291 289 288 285 282 279 278 275 274 273 272 272 270 267 269 271 269 266 262 259 257 255 254 252 250 249
29 74 17 242 236 283 44 69 83 86 90 64 34 86 96 55 21 107 112 80 74 82 99 101 93 91 89 82 73 62 50 46 45 45 45 42 38 35 32 29 27 24 20 15 11 7 5 3 360 357 355 351 348 345 343 341 340 339 338 337 337 338 338 339 339 336 326 311 298 291 290 291 291 290 289 286 283 281 277 274 271 270 269 267 265 267 270 268 264 261 258 255 254 253 252 251 251
350 104 207 242 293 349 14 51 69 64 65 48 28 78 79 63 58 129 129 83 49 77 101 110 103 101 95 86 78 66 60 55 51 47 45 42 37 33 30 28 25 22 17 11 8 5 3 1 358 355 352 350 347 344 342 340 339 336 335 335 334 333 333 333 333 334 333 327 315 301 291 289 289 289 291 291 288 282 278 276 272 268 267 266 265 266 268 267 262 257 255 252 251 253 253 252 252
331 244 217 258 2 344 355 38 43 45 60 47 63 70 64 89 66 109 132 100 99 105 102 109 108 106 100 94 84 69 64 58 53 47 44 41 35 30 25 22 19 16 12 9 7 4 1 359 357 354 351 350 347 344 342 339 338 336 335 336 334 333 331 329 328 327 328 328 326 319 306 295 289 286 285 288 291 286 280 276 275 272 269 266 264 265 266 266 260 254 251 251 251 252 252 251 251
319 279 255 281 353 308 336 12 23 33 55 48 67 32 91 101 74 87 108 106 120 118 111 111 107 108 104 96 82 68 64 56 51 44 38 35 31 26 19 17 14 11 9 8 6 2 359 357 356 354 351 348 346 343 341 339 339 338 337 336 335 335 333 329 325 321 321 322 323 324 320 312 302 293 286 283 285 287 285 279 276 273 272 269 265 265 266 265 259 250 250 254 253 251 250 250 250
169 270 268 237 269 298 320 336 353 19 57 51 21 314 150 121 104 99 106 114 125 125 124 118 112 115 111 98 82 72 64 54 49 39 32 29 27 23 16 13 11 7 6 4 2 360 357 355 354 352 349 346 343 341 339 339 339 339 338 338 337 336 336 332 326 320 315 314 316 318 320 319 314 307 298 290 284 283 283 282 278 271 270 272 268 265 264 264 256 247 252 254 250 249 249 249 247
174 234 266 237 265 289 305 311 322 341 116 19 7 4 164 149 136 117 120 128 133 135 137 133 131 126 112 103 94 76 60 50 44 36 28 23 22 20 16 12 9 6 4 3 1 359 356 354 353 351 347 343 341 339 339 339 338 338 338 338 338 336 336 333 328 324 315 308 308 309 313 314 314 314 309 302 294 286 281 281 280 275 270 268 268 264 260 262 253 245 252 251 246 247 246 243 239
203 202 258 273 281 295 295 280 292 277 181 358 21 53 126 148 138 114 135 139 138 141 139 140 142 131 112 101 93 71 54 46 40 33 27 23 20 18 15 11 8 6 3 1 359 357 355 352 350 348 345 341 340 340 339 339 338 338 337 337 336 335 334 332 329 328 322 314 305 303 307 310 310 309 309 306 300 292 285 281 280 279 275 268 265 263 260 259 252 247 251 249 245 245 242 237 236
275 293 307 303 288 291 285 268 267 205 194 291 40 103 144 152 145 135 157 150 147 143 135 140 139 130 122 106 89 68 56 48 37 32 29 24 20 17 14 11 8 5 2 359 357 356 353 349 347 346 344 342 341 341 340 338 337 336 335 334 333 332 331 330 329 328 324 319 312 304 302 306 308 306 304 303 302 297 289 285 282 279 279 274 265 261 261 258 252 249 250 249 247 244 240 238 240
299 329 325 309 291 281 270 260 238 196 206 252 356 147 164 168 169 167 164 159 160 150 137 141 138 131 129 113 92 73 63 52 34 30 30 24 19 15 12 10 6 3 0 357 357 355 351 348 346 345 345 345 343 342 341 339 337 335 333 332 331 330 329 328 327 325 322 320 318 313 305 301 303 305 303 300 301 301 294 290 288 283 278 276 269 260 259 257 251 249 249 247 246 243 238 240 243
308 337 324 312 325 295 255 241 223 202 213 256 340 32 178 201 185 158 161 161 162 155 144 143 138 134 129 113 95 75 60 46 37 33 30 24 18 13 9 8 4 0 358 356 355 352 349 347 347 347 346 345 344 343 342 341 338 335 333 331 330 329 328 327 324 321 319 318 317 318 316 308 301 300 302 301 299 299 297 293 292 290 281 276 273 262 255 253 249 246 244 241 238 236 236 238 241
298 269 150 329 11 329 243 220 217 200 213 256 1 334 250 227 157 156 161 163 160 152 148 149 144 139 130 113 96 82 59 42 43 36 28 23 16 11 9 8 5 1 357 356 354 350 348 346 346 345 343 341 341 341 340 339 336 333 331 330 329 327 326 324 321 319 317 316 315 316 318 317 310 302 300 302 300 295 295 295 292 292 289 283 279 269 256 249 248 244 237 233 230 230 232 232 234
289 196 100 88 109 292 253 204 182 178 226 206 116 260 251 188 160 163 167 170 164 154 152 155 152 145 136 122 104 92 64 45 48 36 26 21 14 13 11 8 6 1 358 356 352 348 347 346 344 339 338 338 340 342 341 338 335 333 331 329 328 326 324 321 319 318 315 313 313 313 316 317 317 312 307 305 303 298 296 295 292 289 291 290 286 278 263 249 244 241 230 225 226 226 228 229 231
15 111 313 330 172 271 282 216 185 178 225 185 146 267 239 182 179 171 170 173 167 157 157 158 154 147 139 129 111 95 66 51 53 35 22 19 16 16 13 9 6 2 358 355 350 348 348 346 342 336 337 340 341 342 341 340 337 335 333 331 329 326 323 321 318 316 313 312 311 311 313 315 315 315 313 311 308 303 299 297 292 289 288 291 290 282 272 252 235 229 224 223 225 223 224 227 229
352 113 263 292 270 293 310 267 216 184 180 196 195 225 212 193 191 180 174 174 166 157 158 158 155 150 140 128 114 100 73 60 59 34 13 15 16 16 13 9 5 2 358 354 352 351 349 345 342 340 342 343 341 340 339 339 336 334 333 332 329 326 323 320 318 315 312 311 309 308 311 312 312 312 313 314 311 305 302 299 295 292 288 288 291 285 279 263 233 221 222 223 224 225 224 225 227
328 1 289 278 300 307 297 308 271 194 179 228 222 227 249 206 182 184 181 177 168 158 159 160 156 153 144 132 120 109 81 69 64 28 1 7 11 12 12 8 5 2 358 356 355 353 351 350 348 348 347 344 340 337 335 334 333 332 331 331 329 326 323 320 318 316 312 310 307 307 309 310 309 308 309 310 310 307 305 302 299 298 293 285 286 287 288 275 244 223 223 224 224 226 225 223 226
254 274 285 291 303 289 259 276 255 195 197 234 240 256 266 209 177 187 183 179 173 163 164 163 158 153 147 138 124 115 90 75 67 1 352 0 5 7 8 7 5 2 360 358 356 354 354 352 350 348 346 343 338 334 333 332 331 330 329 329 329 326 323 320 318 316 313 310 307 306 306 307 306 305 306 306 306 306 306 305 304 304 301 290 281 281 289 284 259 234 225 225 227 226 226 225 225
215 237 230 261 280 278 261 260 235 184 188 240 239 249 256 194 186 196 184 178 173 167 166 163 159 155 148 140 129 124 108 81 44 328 345 356 1 4 4 4 3 1 0 358 355 354 354 351 347 344 342 339 334 331 332 332 331 329 327 326 326 326 323 319 317 315 313 310 308 306 304 303 303 303 304 304 303 303 303 304 305 306 307 299 285 279 281 282 277 255 232 225 228 224 222 225 224
219 252 253 257 262 273 270 272 257 170 168 251 234 238 255 208 201 203 184 174 169 168 168 165 161 158 153 146 139 134 128 100 0 323 337 352 358 2 2 1 0 359 358 355 352 353 353 349 343 339 338 336 332 330 332 332 330 327 325 324 324 323 322 319 316 314 312 310 307 305 303 301 301 301 302 301 300 300 299 300 302 304 307 305 294 285 280 275 276 274 249 226 222 221 218 220 222
241 246 270 277 258 260 267 253 226 165 161 269 248 252 264 241 226 199 177 173 176 177 173 168 163 161 160 155 154 150 150 171 342 330 332 350 356 359 360 358 357 356 354 353 353 353 349 344 339 337 336 334 331 330 330 330 329 325 322 321 321 321 320 318 315 313 311 309 306 304 302 300 299 299 299 298 298 297 296 297 298 300 304 306 301 292 284 275 268 276 276 237 216 218 219 216 215
244 250 282 285 262 268 281 257 207 157 330 266 266 268 259 252 245 191 182 185 185 184 177 170 166 162 166 167 166 162 165 222 328 333 333 349 354 355 355 354 354 352 350 351 351 349 343 339 337 335 335 332 330 329 329 329 328 324 321 320 321 319 317 315 311 310 308 307 305 303 302 301 299 297 296 295 295 294 293 294 295 298 300 304 306 297 286 277 265 267 283 262 223 217 218 214 212
243 240 258 264 262 273 279 280 304 323 298 262 276 275 258 250 247 186 191 185 173 181 176 170 171 166 170 175 172 163 162 252 328 331 336 349 351 351 352 351 353 350 349 349 346 343 339 337 336 336 335 333 333 332 330 329 327 324 322 320 318 315 313 312 310 309 307 304 301 299 298 299 299 296 294 293 292 291 291 291 292 295 297 300 304 299 288 279 267 262 276 278 239 215 210 210 210
254 222 220 243 251 235 239 280 330 327 310 284 287 288 266 214 195 191 187 166 159 168 164 164 173 172 172 172 168 163 154 329 327 330 341 349 349 347 347 349 351 349 348 347 341 338 336 335 335 335 336 335 335 334 332 330 327 324 322 321 319 318 316 315 314 313 311 306 302 298 296 295 295 294 292 290 289 288 289 290 291 293 296 298 300 298 292 284 273 265 270 282 264 223 208 206 205
283 237 217 218 216 229 256 322 355 337 304 283 315 306 286 199 179 190 166 155 168 168 164 167 174 177 176 167 159 156 124 334 317 336 344 346 345 342 344 348 348 346 346 342 336 334 333 332 333 334 335 335 333 333 332 330 326 323 322 321 321 321 320 317 315 313 310 308 306 303 299 295 290 289 290 289 287 286 286 288 289 291 294 296 299 298 294 288 279 272 271 278 282 254 218 205 200
278 246 188 173 173 220 267 305 344 288 264 265 126 254 281 282 176 194 176 174 186 180 177 178 180 183 180 168 158 159 250 328 302 330 340 340 341 340 343 345 344 343 341 337 333 333 333 332 332 334 335 334 332 332 332 330 328 326 324 322 321 321 318 315 312 310 309 307 306 304 302 301 293 284 286 288 286 284 284 286 286 289 292 293 297 297 293 291 283 278 279 279 282 279 246 210 198
246 237 150 150 193 242 255 239 239 244 277 291 234 205 267 276 229 195 172 176 194 194 193 190 187 183 173 164 163 174 291 326 304 325 334 333 336 337 339 340 341 342 339 335 334 334 334 333 333 334 334 333 332 330 329 330 329 328 325 323 322 321 318 314 313 310 309 307 304 303 303 305 301 286 283 287 286 284 283 284 284 285 289 292 295 295 291 290 288 281 280 282 278 280 275 231 201
248 214 163 194 223 242 249 229 247 266 16 290 237 175 246 269 248 166 160 181 207 201 194 193 188 177 163 161 168 176 214 272 300 321 327 325 330 334 336 339 342 342 339 337 336 334 333 333 333 333 333 332 330 328 327 329 330 328 325 323 321 321 318 314 312 308 306 304 301 302 303 305 305 292 283 288 289 286 283 283 283 283 287 291 290 291 290 285 286 282 275 280 281 276 282 265 211
244 190 209 274 257 251 241 228 256 355 315 262 233 166 216 264 232 139 160 203 217 202 189 191 183 170 161 161 164 170 186 207 293 310 316 320 328 333 337 343 345 343 341 338 336 334 333 333 333 332 332 331 329 327 328 330 331 329 326 324 321 320 319 316 312 308 307 306 304 305 308 309 310 300 288 290 293 290 286 282 281 281 284 287 285 286 291 286 283 280 272 274 281 277 280 283 242
99 55 342 328 299 276 186 210 251 57 258 255 219 182 201 268 244 165 179 217 203 182 173 185 180 165 160 162 163 171 185 217 288 301 313 321 329 338 344 348 346 342 340 338 336 335 334 333 332 331 331 331 328 328 329 329 330 329 326 324 321 320 320 318 315 312 311 311 310 309 308 307 309 304 293 290 293 295 293 287 281 281 281 281 280 284 290 292 288 280 275 273 276 277 275 283 278
69 60 26 346 311 344 35 358 56 154 255 262 219 193 194 235 243 195 215 232 176 171 174 177 174 162 158 159 164 172 190 244 284 303 315 326 338 348 351 348 344 340 338 338 337 335 333 332 331 330 330 330 328 328 328 327 327 327 326 324 322 321 320 319 315 312 311 311 308 304 302 299 298 297 293 289 291 293 294 294 287 280 276 275 277 282 288 292 292 282 276 275 272 277 276 276 285
83 81 58 0 320 351 353 309 222 222 249 256 185 158 209 236 247 210 215 224 178 171 170 166 161 157 157 159 165 174 197 244 283 306 320 339 351 353 351 346 340 336 336 337 337 335 332 331 330 329 329 328 327 327 328 326 325 325 325 324 322 321 320 318 315 311 309 306 304 303 303 301 297 293 290 288 287 284 284 292 293 282 272 274 277 280 287 291 294 285 274 275 272 275 277 271 279
143 133 122 168 312 327 292 272 270 271 269 259 133 78 272 263 277 221 196 187 160 152 153 156 153 153 158 162 166 175 197 244 290 318 340 352 355 352 348 342 336 333 333 336 336 334 330 330 331 329 328 327 325 326 327 325 324 325 325 323 322 321 320 318 315 310 307 304 303 303 303 301 299 296 291 288 284 279 280 286 294 291 276 273 276 277 286 290 292 288 274 275 274 272 277 271 276
187 165 141 170 168 219 265 253 254 281 288 260 192 221 240 224 305 277 153 133 134 138 143 147 149 154 160 162 165 178 203 249 321 345 353 354 351 348 345 339 334 331 332 334 334 332 329 330 330 328 327 326 326 326 326 325 325 324 324 322 321 321 321 319 317 314 309 306 305 302 301 300 298 298 295 291 285 279 282 284 289 295 281 269 273 277 283 288 290 290 279 275 276 273 278 275 272
234 137 119 201 184 189 253 227 207 289 308 273 204 225 228 187 334 16 114 122 127 136 143 145 151 158 158 161 167 179 223 333 353 354 352 349 346 345 342 337 333 331 331 331 331 330 329 329 329 328 326 326 326 326 326 325 325 323 322 322 322 322 322 320 319 317 311 309 308 302 299 299 298 300 298 294 290 281 280 283 285 294 286 270 273 277 279 284 288 291 286 279 280 277 279 282 273
197 137 178 232 179 150 251 271 311 36 302 274 203 244 273 65 328 152 129 135 140 147 151 151 158 162 160 166 172 183 349 1 357 351 346 344 343 342 339 337 334 331 329 329 329 329 328 327 328 327 326 326 328 327 325 324 325 323 322 323 323 324 323 320 318 317 312 310 311 304 298 297 297 301 300 294 294 286 278 281 284 294 293 277 272 275 276 281 286 290 291 282 283 282 279 286 280
143 186 229 239 117 102 149 267 326 11 264 269 195 240 257 177 215 221 166 171 178 180 170 162 165 165 166 170 171 172 4 2 346 342 342 341 341 340 340 339 334 330 327 327 329 329 328 327 326 325 325 327 328 327 326 325 325 324 323 323 324 325 323 319 317 317 313 309 311 308 301 297 295 297 300 297 295 289 279 277 282 291 296 284 275 274 273 277 283 287 292 286 282 286 281 286 286
140 211 266 96 190 260 150 161 261 243 264 272 231 243 242 202 192 193 191 195 192 189 179 173 174 169 168 168 159 26 2 346 330 341 342 340 340 341 342 340 333 328 326 328 331 330 329 328 327 326 326 327 326 325 325 326 325 324 323 323 324 325 323 319 316 317 316 310 309 309 304 300 300 298 299 298 293 288 281 278 280 286 294 289 280 275 269 273 282 284 290 289 283 286 283 282 288
81 23 320 350 199 223 189 176 187 220 267 273 284 291 254 205 187 182 194 199 187 182 181 182 183 173 168 164 156 153 322 314 335 345 341 339 340 341 342 338 331 326 327 331 332 330 329 328 328 328 328 328 326 324 324 325 325 323 322 323 326 327 325 320 316 316 317 313 308 307 305 302 303 302 299 297 292 288 286 283 281 281 288 291 283 276 269 270 281 284 288 291 285 285 285 280 286
138 169 238 231 223 233 258 239 157 197 255 263 285 284 260 202 187 181 191 194 180 176 181 185 180 170 166 166 167 184 247 327 343 345 341 339 340 342 341 335 328 327 330 333 332 329 328 329 329 328 328 328 327 326 326 325 325 324 323 323 327 328 325 321 318 315 314 313 307 304 304 301 299 299 297 296 294 290 287 284 279 276 279 287 285 277 273 270 277 283 286 291 287 282 284 280 282
174 188 194 202 215 218 268 262 186 191 240 221 254 271 261 212 184 172 177 181 175 177 177 173 169 164 165 173 172 189 283 337 344 343 341 340 342 341 338 332 329 329 332 334 332 330 328 329 330 329 327 328 327 326 326 326 326 326 324 324 327 329 327 322 318 314 312 312 308 302 302 301 297 297 296 295 295 292 288 282 277 274 273 278 282 276 275 273 275 282 285 289 289 280 281 280 277